FW1695 Weather Reports


time (UTC)temp
C
wind
direction
speed
KPH
gust
KPH
rain 1hr
cm
rain 24hr
cm
rain mn
cm
humidity
%
barometer
mb
20260505061537 23 342 4.8 20.9 0.00 0.00 0.00 39 1008.6
20260505061035 23 51 3.2 12.9 0.00 0.00 0.00 38 1008.6
20260505060540 23 272 4.8 11.3 0.00 0.00 0.00 38 1008.7
20260505060044 23 307 1.6 12.9 0.00 0.00 0.00 37 1008.7
20260505055535 23 74 4.8 14.5 0.00 0.00 0.00 37 1008.8
20260505055033 23 349 3.2 14.5 0.00 0.00 0.00 36 1008.8
20260505054534 23 311 1.6 12.9 0.00 0.00 0.00 35 1008.8
20260505054033 24 52 3.2 14.5 0.00 0.00 0.00 34 1008.8
20260505053632 24 305 4.8 14.5 0.00 0.00 0.00 33 1008.8
20260505053032 24 319 3.2 14.5 0.00 0.00 0.00 32 1008.8
20260505052531 23 335 4.8 14.5 0.00 0.00 0.00 32 1008.9
20260505052032 23 314 3.2 11.3 0.00 0.00 0.00 32 1008.9
20260505051533 23 330 1.6 6.4 0.00 0.00 0.00 33 1008.9
20260505051032 23 287 0.0 1.6 0.00 0.00 0.00 34 1009.0
20260505050532 23 287 0.0 3.2 0.00 0.00 0.00 34 1009.0
20260505041529 23 290 0.0 1.6 0.00 0.00 0.00 32 1008.6
20260505041029 23 292 0.0 1.6 0.00 0.00 0.00 32 1008.5
20260505040529 23 290 0.0 1.6 0.00 0.00 0.00 32 1008.5
20260505040028 23 290 0.0 1.6 0.00 0.00 0.00 32 1008.4
20260505035529 23 290 0.0 0.0 0.00 0.00 0.00 32 1008.4
20260505035029 23 290 0.0 0.0 0.00 0.00 0.00 33 1008.3
20260505034526 24 290 0.0 0.0 0.00 0.00 0.00 33 1008.2
20260505034027 24 290 0.0 0.0 0.00 0.00 0.00 32 1008.1
20260505033527 24 291 0.0 0.0 0.00 0.00 0.00 32 1008.1
20260505033027 25 291 0.0 1.6 0.00 0.00 0.00 32 1007.9
20260505032526 25 291 0.0 1.6 0.00 0.00 0.00 32 1007.9
20260505032026 25 292 0.0 1.6 0.00 0.00 0.00 32 1007.7
20260505031525 25 292 0.0 1.6 0.00 0.00 0.00 31 1007.6
20260505031025 25 293 0.0 1.6 0.00 0.00 0.00 31 1007.5
20260505030525 25 293 0.0 1.6 0.00 0.00 0.00 32 1007.5
20260505030025 25 293 0.0 1.6 0.00 0.00 0.00 32 1007.5
20260505025524 25 278 0.0 1.6 0.00 0.00 0.00 32 1007.4
20260505025023 25 278 0.0 1.6 0.00 0.00 0.00 32 1007.3
20260505024525 25 321 0.0 0.0 0.00 0.00 0.00 32 1007.2
20260505024023 25 325 0.0 1.6 0.00 0.00 0.00 33 1007.2
20260505023523 26 328 0.0 1.6 0.00 0.00 0.00 33 1007.0
20260505023025 26 295 0.0 0.0 0.00 0.00 0.00 34 1006.9
20260505022523 26 304 0.0 3.2 0.00 0.00 0.00 34 1006.9
20260505022027 26 300 0.0 6.4 0.00 0.00 0.00 34 1006.7
20260505021528 26 296 0.0 3.2 0.00 0.00 0.00 35 1006.6
20260505021024 26 279 0.0 1.6 0.00 0.00 0.00 35 1006.7
20260505020522 26 257 0.0 1.6 0.00 0.00 0.00 36 1006.6
20260505020022 26 257 0.0 1.6 0.00 0.00 0.00 35 1006.5
20260505015521 26 290 0.0 1.6 0.00 0.00 0.00 35 1006.4
20260505015024 26 289 0.0 1.6 0.00 0.00 0.00 35 1006.3
20260505014521 27 63 0.0 0.0 0.00 0.00 0.00 35 1006.2
20260505014029 27 63 0.0 0.0 0.00 0.00 0.00 34 1006.1
20260505013520 27 72 0.0 0.0 0.00 0.00 0.00 34 1006.1
20260505013021 27 73 0.0 0.0 0.00 0.00 0.00 33 1006.0
20260505012521 28 75 0.0 3.2 0.00 0.00 0.00 33 1005.9
20260505012021 28 76 0.0 3.2 0.00 0.00 0.00 32 1006.0
20260505011524 28 91 0.0 3.2 0.00 0.00 0.00 31 1005.9
20260505011021 28 90 0.0 3.2 0.00 0.00 0.00 31 1005.9
20260505010520 28 134 0.0 1.6 0.00 0.00 0.00 31 1005.8
20260505010020 28 83 0.0 4.8 0.00 0.00 0.00 31 1005.7
20260505005520 29 82 0.0 4.8 0.00 0.00 0.00 30 1005.8
20260505005019 29 77 0.0 0.0 0.00 0.00 0.00 30 1005.8
20260505004524 29 76 0.0 6.4 0.00 0.00 0.00 30 1005.7
20260505004019 30 59 0.0 6.4 0.00 0.00 0.00 30 1005.7
20260505003519 30 51 0.0 6.4 0.00 0.00 0.00 32 1005.7
20260505003019 30 95 0.0 4.8 0.00 0.00 0.00 31 1005.6
20260505002519 30 129 0.0 4.8 0.00 0.00 0.00 31 1005.6
20260505002019 30 155 0.0 4.8 0.00 0.00 0.00 30 1005.7
20260505001519 31 102 1.6 8.0 0.00 0.00 0.00 29 1005.5
20260505001018 31 143 0.0 8.0 0.00 0.00 0.00 29 1005.5
20260505000518 31 90 0.0 6.4 0.00 0.00 0.00 29 1005.6
20260505000024 31 42 1.6 6.4 0.00 0.00 0.00 29 1005.6
20260504235517 31 324 0.0 8.0 0.00 0.00 0.00 29 1005.6
20260504235017 31 94 1.6 8.0 0.00 0.00 0.00 29 1005.7
20260504234517 31 106 0.0 9.7 0.00 0.00 0.00 30 1005.7
20260504234016 31 98 4.8 9.7 0.00 0.00 0.00 31 1005.7
20260504233515 31 136 0.0 9.7 0.00 0.00 0.00 31 1005.8
20260504233016 31 145 0.0 9.7 0.00 0.00 0.00 30 1005.8
20260504232515 31 65 1.6 9.7 0.00 0.00 0.00 31 1005.8
20260504232015 31 112 1.6 8.0 0.00 0.00 0.00 31 1005.8
20260504231514 31 92 0.0 6.4 0.00 0.00 0.00 31 1005.8
20260504231014 31 146 0.0 9.7 0.00 0.00 0.00 31 1005.9
20260504230513 31 58 0.0 11.3 0.00 0.00 0.00 31 1006.0
20260504230014 31 42 1.6 8.0 0.00 0.00 0.00 31 1005.9
20260504225512 31 87 0.0 9.7 0.00 0.00 0.00 30 1005.9
20260504225017 31 92 1.6 14.5 0.00 0.00 0.00 30 1006.0
20260504224513 32 93 1.6 14.5 0.00 0.00 0.00 30 1006.0
20260504224011 31 47 1.6 12.9 0.00 0.00 0.00 30 1006.1
20260504223511 31 198 0.0 6.4 0.00 0.00 0.00 30 1006.1
20260504223010 31 32 0.0 8.0 0.00 0.00 0.00 30 1006.2
20260504222509 31 65 0.0 17.7 0.00 0.00 0.00 29 1006.2
20260504222012 31 24 4.8 17.7 0.00 0.00 0.00 30 1006.3
20260504221508 31 110 0.0 8.0 0.00 0.00 0.00 29 1006.3
20260504221007 31 62 0.0 14.5 0.00 0.00 0.00 29 1006.5
20260504220510 31 232 3.2 14.5 0.00 0.00 0.00 29 1006.5
20260504220005 31 128 0.0 11.3 0.00 0.00 0.00 29 1006.6
20260504215505 32 323 3.2 11.3 0.00 0.00 0.00 28 1006.7
20260504215006 32 84 1.6 9.7 0.00 0.00 0.00 29 1006.8
20260504214506 31 46 0.0 12.9 0.00 0.00 0.00 28 1006.9
20260504214005 31 105 1.6 12.9 0.00 0.00 0.00 28 1007.0
20260504213502 31 37 1.6 19.3 0.00 0.00 0.00 29 1007.0
20260504213002 31 105 6.4 19.3 0.00 0.00 0.00 29 1007.2
20260504212501 31 102 9.7 17.7 0.00 0.00 0.00 29 1007.1
20260504212102 31 354 3.2 12.9 0.00 0.00 0.00 29 1007.2
20260504211600 31 306 0.0 14.5 0.00 0.00 0.00 29 1007.3
20260504211059 31 316 4.8 14.5 0.00 0.00 0.00 29 1007.5
20260504210558 31 341 0.0 11.3 0.00 0.00 0.00 29 1007.6
20260504210059 31 117 4.8 12.9 0.00 0.00 0.00 30 1007.8
20260504205556 31 94 4.8 12.9 0.00 0.00 0.00 30 1007.9
20260504205058 31 75 4.8 14.5 0.00 0.00 0.00 29 1008.0
20260504204554 31 72 3.2 14.5 0.00 0.00 0.00 29 1008.1
20260504204056 31 333 0.0 11.3 0.00 0.00 0.00 28 1008.2
20260504203552 31 60 3.2 11.3 0.00 0.00 0.00 30 1008.4
20260504203056 31 320 0.0 8.0 0.00 0.00 0.00 30 1008.5
20260504202549 31 108 1.6 16.1 0.00 0.00 0.00 30 1008.5
20260504202049 30 94 4.8 16.1 0.00 0.00 0.00 30 1008.6
20260504201601 30 61 3.2 12.9 0.00 0.00 0.00 30 1008.7
20260504201051 30 114 1.6 12.9 0.00 0.00 0.00 31 1008.7
20260504200546 30 77 3.2 14.5 0.00 0.00 0.00 31 1008.8
20260504200047 30 46 4.8 14.5 0.00 0.00 0.00 31 1008.9
20260504195545 30 100 1.6 20.9 0.00 0.00 0.00 30 1009.0
20260504195046 30 128 6.4 20.9 0.00 0.00 0.00 32 1009.0
20260504194549 30 228 0.0 11.3 0.00 0.00 0.00 31 1009.0
20260504194044 30 301 3.2 20.9 0.00 0.00 0.00 32 1009.2
20260504193543 30 304 6.4 20.9 0.00 0.00 0.00 31 1009.3
20260504193043 30 155 1.6 14.5 0.00 0.00 0.00 29 1009.3
20260504192540 30 86 3.2 19.3 0.00 0.00 0.00 30 1009.3
20260504192039 29 56 6.4 19.3 0.00 0.00 0.00 32 1009.4
20260504191543 29 107 1.6 19.3 0.00 0.00 0.00 33 1009.6
20260504191037 29 310 3.2 14.5 0.00 0.00 0.00 32 1009.7
20260504190538 28 99 1.6 14.5 0.00 0.00 0.00 34 1009.7
20260504190034 28 123 3.2 16.1 0.00 0.00 0.00 35 1009.9
20260504185536 28 83 3.2 14.5 0.00 0.00 0.00 36 1010.0
20260504185033 28 316 3.2 19.3 0.00 0.00 0.00 35 1009.9
20260504184538 28 44 6.4 19.3 0.00 0.00 0.00 35 1010.1
20260504184032 28 114 4.8 17.7 0.00 0.00 0.00 35 1010.3
20260504183530 28 99 8.0 22.5 0.00 0.00 0.00 36 1010.4
20260504183030 28 89 8.0 22.5 0.00 0.00 0.00 37 1010.4
20260504182531 28 74 3.2 22.5 0.00 0.00 0.00 36 1010.5
20260504182029 28 117 8.0 22.5 0.00 0.00 0.00 36 1010.6
20260504181532 28 82 4.8 16.1 0.00 0.00 0.00 38 1010.7
20260504181029 28 44 4.8 16.1 0.00 0.00 0.00 39 1010.8
20260504180527 27 45 4.8 24.1 0.00 0.00 0.00 39 1010.9
20260504180024 28 91 9.7 24.1 0.00 0.00 0.00 39 1011.2
20260504175523 28 84 6.4 19.3 0.00 0.00 0.00 40 1011.3
20260504175022 27 102 4.8 17.7 0.00 0.00 0.00 40 1011.4
20260504174522 27 61 6.4 20.9 0.00 0.00 0.00 40 1011.4
20260504174021 27 125 6.4 20.9 0.00 0.00 0.00 42 1011.5
20260504173518 27 18 1.6 11.3 0.00 0.00 0.00 42 1011.5
20260504173021 26 300 1.6 12.9 0.00 0.00 0.00 44 1011.7
20260504172518 -17 0.0 0.0 0.00 0.00 0.00 1011.8
20260504172018 -17 0.0 0.0 0.00 0.00 0.00 1012.0
20260504171517 -17 0.0 0.0 0.00 0.00 0.00 1012.1
20260504171019 -17 0.0 0.0 0.00 0.00 0.00 1012.1
20260504170516 -17 0.0 0.0 0.00 0.00 0.00 1012.1
20260504151015 -17 0.0 0.0 0.00 0.00 0.00 1013.2
20260504150514 -17 0.0 0.0 0.00 0.00 0.00 1013.1
20260504141058 -17 0.0 0.0 0.00 0.00 0.00 1013.1
20260504140557 -17 0.0 0.0 0.00 0.00 0.00 1013.1
20260504140109 -17 0.0 0.0 0.00 0.00 0.00 1013.1
20260504130539 -17 0.0 0.0 0.00 0.00 0.00 1012.9